Tracking 31027 objects as of 19-Jul-2025
HD Live streaming from Space Station
objects crossing your sky now

STARLINK-30946

Track STARLINK-30946 now!
10-day predictions
STARLINK-30946 is classified as:


NORAD ID: 58450
Int'l Code: 2023-183P
Perigee: 565.1 km
Apogee: 567.3 km
Inclination: 43.0 °
Period: 95.8 minutes
Semi major axis: 6937 km
RCS: Unknown
Launch date: November 28, 2023
Source: United States (US)
Launch site: AIR FORCE EASTERN TEST RANGE (AFETR)
Your satellite tracking list
FLOCK 4Q 34
Track 1 satellite(s)




NASA's NSSDC Master Catalog

Two Line Element Set (TLE):
1 58450U 23183P   25199.56544326  .00000422  00000-0  46308-4 0  9993
2 58450  43.0016 235.6844 0001579 275.6290  84.4373 15.02539002 91492
Source of the keplerian elements: AFSPC